• In Deutschland
  • Länderverzeichnis
  • Für 7 Tage
  • Wassertemperatur
  • Satellitenkarten
  • Wetterkarte
  • Widgets
  • user-avatar
    Anmelden

    Stündliche Wetter Salzwedel

    Heute, 21 Februar, Mittwoch

    Zeit Temperatur Niederschläge Wind Luftdruck Luftfeuchtigkeit
    00:00 -3°C° 0 mm 2 m/S 765 mmHg 84%
    01:00 -3°C° 0 mm 2 m/S 766 mmHg 85%
    02:00 -4°C° 0 mm 2 m/S 766 mmHg 85%
    03:00 -4°C° 0 mm 2 m/S 766 mmHg 85%
    04:00 -4°C° 0 mm 2 m/S 766 mmHg 85%
    05:00 -4°C° 0 mm 2 m/S 766 mmHg 85%
    06:00 -4°C° 0 mm 2 m/S 766 mmHg 84%
    07:00 -4°C° 0 mm 2 m/S 767 mmHg 82%
    08:00 -2°C° 0 mm 2 m/S 767 mmHg 76%
    09:00 -1°C° 0 mm 2 m/S 767 mmHg 70%
    10:00 +1°C° 0 mm 2 m/S 767 mmHg 63%
    11:00 +2°C° 0 mm 2 m/S 767 mmHg 59%
    12:00 +2°C° 0 mm 3 m/S 767 mmHg 55%
    13:00 +3°C° 0 mm 3 m/S 767 mmHg 50%
    14:00 +3°C° 0 mm 3 m/S 767 mmHg 51%
    15:00 +2°C° 0 mm 3 m/S 767 mmHg 52%
    16:00 +3°C° 0 mm 2 m/S 766 mmHg 53%
    17:00 +2°C° 0 mm 2 m/S 767 mmHg 60%
    18:00 +1°C° 0 mm 2 m/S 767 mmHg 66%
    19:00 -2°C° 0 mm 2 m/S 767 mmHg 72%
    20:00 -2°C° 0 mm 2 m/S 767 mmHg 75%
    21:00 -3°C° 0 mm 2 m/S 767 mmHg 78%
    22:00 -3°C° 0 mm 2 m/S 768 mmHg 81%
    23:00 -3°C° 0 mm 2 m/S 768 mmHg 82%

    Morgen, 22 Februar, Donnerstag

    Zeit Temperatur Niederschläge Wind Luftdruck Luftfeuchtigkeit
    00:00 -3°C° 0 mm 2 m/S 768 mmHg 83%
    01:00 -1°C° 0 mm 1 m/S 768 mmHg 85%
    02:00 -1°C° 0 mm 1 m/S 768 mmHg 85%
    03:00 -1°C° 0 mm 1 m/S 767 mmHg 85%
    04:00 -1°C° 0 mm 1 m/S 767 mmHg 85%
    05:00 -1°C° 0 mm 1 m/S 767 mmHg 85%
    06:00 -1°C° 0 mm 1 m/S 767 mmHg 86%
    07:00 -2°C° 0 mm 1 m/S 767 mmHg 86%
    08:00 0°C° 0 mm 1 m/S 767 mmHg 80%
    09:00 +1°C° 0 mm 1 m/S 767 mmHg 74%
    10:00 +2°C° 0 mm 1 m/S 767 mmHg 68%
    11:00 +3°C° 0 mm 1 m/S 767 mmHg 64%
    12:00 +3°C° 0 mm 2 m/S 767 mmHg 61%
    13:00 +3°C° 0 mm 2 m/S 766 mmHg 57%
    14:00 +3°C° 0 mm 2 m/S 766 mmHg 59%
    15:00 +3°C° 0 mm 2 m/S 766 mmHg 61%
    16:00 +3°C° 0 mm 2 m/S 766 mmHg 62%
    17:00 +2°C° 0 mm 2 m/S 766 mmHg 68%
    18:00 +1°C° 0 mm 2 m/S 766 mmHg 74%
    19:00 -1°C° 0 mm 2 m/S 766 mmHg 80%
    20:00 -2°C° 0 mm 2 m/S 766 mmHg 83%
    21:00 -3°C° 0 mm 2 m/S 766 mmHg 85%
    22:00 -3°C° 0 mm 2 m/S 767 mmHg 87%
    23:00 -4°C° 0 mm 2 m/S 767 mmHg 86%

    übermorgen, 23 Februar, Freitag

    Zeit Temperatur Niederschläge Wind Luftdruck Luftfeuchtigkeit
    00:00 -4°C° 0 mm 2 m/S 767 mmHg 85%
    01:00 -4°C° 0 mm 2 m/S 767 mmHg 84%
    02:00 -4°C° 0 mm 2 m/S 767 mmHg 82%
    03:00 -4°C° 0 mm 2 m/S 767 mmHg 81%
    04:00 -3°C° 0 mm 1 m/S 767 mmHg 79%
    05:00 -5°C° 0 mm 2 m/S 767 mmHg 77%
    06:00 -5°C° 0 mm 2 m/S 767 mmHg 76%
    07:00 -5°C° 0 mm 2 m/S 767 mmHg 74%
    08:00 -4°C° 0 mm 2 m/S 767 mmHg 65%
    09:00 -4°C° 0 mm 3 m/S 768 mmHg 57%
    10:00 -2°C° 0 mm 3 m/S 768 mmHg 48%
    11:00 -1°C° 0 mm 3 m/S 768 mmHg 43%
    12:00 0°C° 0 mm 3 m/S 768 mmHg 37%
    13:00 +1°C° 0 mm 3 m/S 767 mmHg 32%
    14:00 +1°C° 0 mm 3 m/S 767 mmHg 33%
    15:00 0°C° 0 mm 4 m/S 767 mmHg 34%
    16:00 0°C° 0 mm 4 m/S 767 mmHg 35%
    17:00 0°C° 0 mm 3 m/S 767 mmHg 40%
    18:00 -2°C° 0 mm 3 m/S 768 mmHg 45%
    19:00 -4°C° 0 mm 3 m/S 768 mmHg 50%
    20:00 -4°C° 0 mm 3 m/S 768 mmHg 50%
    21:00 -4°C° 0 mm 3 m/S 768 mmHg 51%
    22:00 -5°C° 0 mm 3 m/S 769 mmHg 51%
    23:00 -5°C° 0 mm 3 m/S 769 mmHg 52%

    24 Februar, Samstag

    Zeit Temperatur Niederschläge Wind Luftdruck Luftfeuchtigkeit
    00:00 -5°C° 0 mm 3 m/S 769 mmHg 53%
    01:00 -5°C° 0 mm 3 m/S 769 mmHg 54%
    02:00 -5°C° 0 mm 3 m/S 769 mmHg 58%
    03:00 -5°C° 0 mm 3 m/S 769 mmHg 62%
    04:00 -5°C° 0 mm 3 m/S 769 mmHg 65%
    05:00 -5°C° 0 mm 4 m/S 769 mmHg 71%
    06:00 -5°C° 0 mm 4 m/S 770 mmHg 76%
    07:00 -5°C° 0 mm 4 m/S 770 mmHg 81%
    08:00 -5°C° 0 mm 5 m/S 770 mmHg 73%
    09:00 -4°C° 0 mm 5 m/S 770 mmHg 66%
    10:00 -3°C° 0 mm 6 m/S 771 mmHg 58%
    11:00 -3°C° 0 mm 6 m/S 770 mmHg 52%
    12:00 -2°C° 0 mm 6 m/S 770 mmHg 45%
    13:00 -1°C° 0 mm 6 m/S 770 mmHg 39%
    14:00 -2°C° 0 mm 6 m/S 770 mmHg 39%
    15:00 -2°C° 0 mm 6 m/S 770 mmHg 39%
    16:00 -2°C° 0 mm 6 m/S 770 mmHg 39%
    17:00 -3°C° 0 mm 6 m/S 770 mmHg 42%
    18:00 -4°C° 0 mm 5 m/S 771 mmHg 46%
    19:00 -5°C° 0 mm 5 m/S 771 mmHg 50%
    20:00 -5°C° 0 mm 4 m/S 771 mmHg 52%
    21:00 -5°C° 0 mm 4 m/S 772 mmHg 54%
    22:00 -5°C° 0 mm 4 m/S 772 mmHg 56%
    23:00 -5°C° 0 mm 4 m/S 772 mmHg 55%

    25 Februar, Sonntag

    Zeit Temperatur Niederschläge Wind Luftdruck Luftfeuchtigkeit
    00:00 -7°C° 0 mm 4 m/S 772 mmHg 55%
    01:00 -7°C° 0 mm 4 m/S 772 mmHg 54%
    02:00 -7°C° 0 mm 4 m/S 772 mmHg 53%
    03:00 -8°C° 0 mm 4 m/S 772 mmHg 52%
    04:00 -8°C° 0 mm 4 m/S 772 mmHg 51%
    05:00 -8°C° 0 mm 4 m/S 772 mmHg 51%
    06:00 -8°C° 0 mm 4 m/S 772 mmHg 52%
    07:00 -8°C° 0 mm 3 m/S 772 mmHg 52%
    08:00 -8°C° 0 mm 4 m/S 773 mmHg 47%
    09:00 -7°C° 0 mm 4 m/S 773 mmHg 43%
    10:00 -5°C° 0 mm 4 m/S 773 mmHg 38%
    11:00 -5°C° 0 mm 4 m/S 773 mmHg 38%
    12:00 -4°C° 0 mm 4 m/S 773 mmHg 38%
    13:00 -3°C° 0 mm 4 m/S 772 mmHg 38%
    14:00 -3°C° 0 mm 4 m/S 772 mmHg 39%
    15:00 -3°C° 0 mm 4 m/S 772 mmHg 40%
    16:00 -3°C° 0 mm 4 m/S 772 mmHg 40%
    17:00 -4°C° 0 mm 4 m/S 772 mmHg 44%
    18:00 -5°C° 0 mm 3 m/S 772 mmHg 47%
    19:00 -6°C° 0 mm 3 m/S 772 mmHg 50%
    20:00 -6°C° 0 mm 3 m/S 772 mmHg 52%
    21:00 -5°C° 0 mm 2 m/S 772 mmHg 54%
    22:00 -6°C° 0 mm 2 m/S 772 mmHg 56%
    23:00 -6°C° 0 mm 2 m/S 772 mmHg 58%

    26 Februar, Montag

    Zeit Temperatur Niederschläge Wind Luftdruck Luftfeuchtigkeit
    00:00 -6°C° 0 mm 2 m/S 772 mmHg 61%
    01:00 -6°C° 0 mm 2 m/S 772 mmHg 64%
    02:00 -6°C° 0 mm 2 m/S 772 mmHg 66%
    03:00 -6°C° 0 mm 1 m/S 772 mmHg 69%
    04:00 -6°C° 0 mm 1 m/S 772 mmHg 71%
    05:00 -6°C° 0 mm 1 m/S 771 mmHg 73%
    06:00 -6°C° 0 mm 1 m/S 771 mmHg 75%
    07:00 -6°C° 0 mm 1 m/S 771 mmHg 78%
    08:00 -6°C° 0 mm 2 m/S 771 mmHg 71%
    09:00 -5°C° 0 mm 2 m/S 771 mmHg 64%
    10:00 -4°C° 0 mm 2 m/S 771 mmHg 58%
    11:00 -4°C° 0 mm 2 m/S 771 mmHg 53%
    12:00 -4°C° 0 mm 3 m/S 770 mmHg 49%
    13:00 -4°C° 0 mm 3 m/S 770 mmHg 45%
    14:00 -4°C° 0,1 mm 3 m/S 770 mmHg 45%
    15:00 -4°C° 0,1 mm 3 m/S 769 mmHg 45%
    16:00 -4°C° 0,1 mm 3 m/S 769 mmHg 46%
    17:00 -4°C° 0 mm 3 m/S 769 mmHg 51%
    18:00 -4°C° 0 mm 2 m/S 769 mmHg 57%
    19:00 -5°C° 0 mm 2 m/S 769 mmHg 62%
    20:00 -5°C° 0 mm 2 m/S 769 mmHg 65%
    21:00 -6°C° 0 mm 2 m/S 769 mmHg 67%
    22:00 -6°C° 0 mm 2 m/S 769 mmHg 70%
    23:00 -6°C° 0 mm 2 m/S 769 mmHg 71%
    Mehr zeigen